Petersburg, WV

3:43 AM EST on December 06, 2019 (GMT -0500)
Petersburg

Weather History for KW99 - September, 2019

Change the Weather History Date:

Saturday, September 7, 2019

  Actual Average (KEKN) Record (KEKN)
Temperature  
Mean Temperature 66 °F -  
Max Temperature 77 °F 76 °F 90 °F (1899)
Min Temperature 56 °F 52 °F 36 °F (1924)
Cooling Degree Days 2    
Growing Degree Days 16 (Base 50)    
Moisture  
Dew Point 57 °F    
Average Humidity 77    
Maximum Humidity 100    
Minimum Humidity 46    
Precipitation  
Precipitation 0.00 in - - ()
Sea Level Pressure  
Sea Level Pressure 29.95 in    
Wind  
Wind Speed 2 mph (WNW)    
Max Wind Speed 17 mph    
Max Gust Speed 18 mph    
Visibility 9 miles    
Events      
Averages and records for this station are not official NWS values.
T = Trace of Precipitation, MM = Missing Value Source: NWS Daily Summary

Daily Weather History Graph

Daily Weather History Graph

Search for Another Location

Airport or City:

Astronomy

Sep. 07, 2019 Rise Set
Actual Time 6:50 AM EDT 7:38 PM EDT
Civil Twilight 6:23 AM EDT 8:05 PM EDT
Nautical Twilight 5:51 AM EDT 8:36 PM EDT
Astronomical Twilight 5:18 AM EDT 9:09 PM EDT
Moon 3:49 PM EDT (9/7) 12:43 AM EDT (9/7)
Length of Visible Light 13h 41m
Length of Day
12h 47m
Waxing Gibbous, 65% of the Moon is Illuminated
Sep 7
Waxing Gibbous
Sep 14
Full
Sep 21
Last Quarter
Sep 28
New
Oct 5
First Quarter

Hourly Weather History & Observations

Time (EDT) Temp. Dew Point Humidity Pressure Visibility Wind Dir Wind Speed Gust Speed Precip Events Conditions
12:15 AM 61.2 °F 59.9 °F 96% 29.87 in 10.0 mi Calm Calm - N/A   Scattered Clouds
12:35 AM 61.0 °F 60.6 °F 99% 29.87 in 10.0 mi Calm Calm - N/A   Scattered Clouds
12:55 AM 58.6 °F 58.3 °F 99% 29.87 in 7.0 mi Calm Calm - N/A   Scattered Clouds
1:15 AM 59.5 °F 59.2 °F 99% 29.87 in 10.0 mi Calm Calm - N/A   Scattered Clouds
1:35 AM 59.5 °F 59.4 °F 99% 29.87 in 10.0 mi Calm Calm - N/A   Clear
1:55 AM 59.4 °F 59.0 °F 99% 29.87 in 10.0 mi Calm Calm - N/A   Clear
2:15 AM 58.5 °F 58.1 °F 99% 29.88 in 10.0 mi Calm Calm - N/A   Clear
2:35 AM 58.3 °F 57.9 °F 99% 29.88 in 10.0 mi Calm Calm - N/A   Scattered Clouds
2:55 AM 59.0 °F 58.8 °F 99% 29.88 in 10.0 mi Calm Calm - N/A   Mostly Cloudy
3:15 AM 59.4 °F 59.0 °F 99% 29.88 in 10.0 mi Calm Calm - N/A   Overcast
3:35 AM 59.9 °F 59.7 °F 99% 29.88 in 10.0 mi Calm Calm - N/A   Overcast
3:55 AM 60.1 °F 59.7 °F 99% 29.88 in 10.0 mi Calm Calm - N/A   Overcast
4:15 AM 59.9 °F 59.7 °F 99% 29.88 in 10.0 mi Calm Calm - N/A   Overcast
4:35 AM 60.4 °F 60.1 °F 99% 29.88 in 10.0 mi Calm Calm - N/A   Overcast
4:55 AM 60.3 °F 59.9 °F 99% 29.88 in 10.0 mi Calm Calm - N/A   Mostly Cloudy
5:15 AM 59.7 °F 59.4 °F 99% 29.89 in 10.0 mi West 3.5 mph - N/A   Scattered Clouds
5:35 AM 57.7 °F 57.6 °F 99% 29.90 in 10.0 mi Calm Calm - N/A   Mostly Cloudy
5:55 AM 57.7 °F 57.6 °F 99% 29.91 in 7.0 mi Calm Calm - N/A   Overcast
6:10 AM 57.9 °F 57.7 °F 99% 29.92 in 5.0 mi Calm Calm - N/A   Mostly Cloudy
6:35 AM 57.7 °F 57.6 °F 99% 29.92 in 7.0 mi Calm Calm - N/A   Scattered Clouds
6:55 AM 57.2 °F 57.0 °F 99% 29.93 in 7.0 mi Calm Calm - N/A   Clear
7:15 AM 56.3 °F 56.1 °F 99% 29.93 in 5.0 mi Calm Calm - N/A   Scattered Clouds
7:30 AM 56.8 °F 56.8 °F 100% 29.94 in 5.0 mi Calm Calm - N/A   Scattered Clouds
7:55 AM 58.1 °F 58.1 °F 100% 29.94 in 10.0 mi Calm Calm - N/A   Clear
8:15 AM 59.7 °F 58.6 °F 96% 29.95 in 10.0 mi Calm Calm - N/A   Clear
8:35 AM 61.3 °F 59.4 °F 93% 29.94 in 10.0 mi Calm Calm - N/A   Clear
8:55 AM 62.8 °F 59.2 °F 88% 29.95 in 10.0 mi Calm Calm - N/A   Clear
9:15 AM 64.0 °F 58.6 °F 83% 29.96 in 10.0 mi Calm Calm - N/A   Clear
9:35 AM 66.7 °F 59.0 °F 76% 29.97 in 10.0 mi Calm Calm - N/A   Clear
9:55 AM 68.0 °F 59.2 °F 73% 29.96 in 10.0 mi Calm Calm - N/A   Clear
10:15 AM 69.4 °F 59.2 °F 70% 29.96 in 10.0 mi Calm Calm - N/A   Clear
10:35 AM 72.5 °F 59.4 °F 63% 29.96 in 10.0 mi Calm Calm - N/A   Clear
10:55 AM 73.6 °F 57.4 °F 57% 29.96 in 10.0 mi West 4.6 mph - N/A   Clear
11:15 AM 74.5 °F 54.7 °F 50% 29.96 in 5.0 mi NW 8.1 mph - N/A   Haze
11:35 AM 75.2 °F 55.0 °F 49% 29.96 in 10.0 mi NW 9.2 mph - N/A   Clear
11:55 AM 75.6 °F 55.4 °F 49% 29.96 in 10.0 mi WNW 11.5 mph 17.3 mph N/A   Clear
12:15 PM 74.8 °F 54.3 °F 49% 29.96 in 10.0 mi NNW 5.8 mph - N/A   Clear
12:35 PM 75.2 °F 55.0 °F 49% 29.96 in 10.0 mi WNW 9.2 mph - N/A   Scattered Clouds
12:55 PM 75.6 °F 56.1 °F 51% 29.96 in 10.0 mi NW 9.2 mph - N/A   Scattered Clouds
1:15 PM 74.3 °F 54.5 °F 50% - 10.0 mi NW 10.4 mph - N/A   Mostly Cloudy
1:35 PM 75.9 °F 55.2 °F 49% 29.96 in 10.0 mi WNW 10.4 mph 18.4 mph N/A   Mostly Cloudy
1:55 PM 76.6 °F 55.2 °F 47% 29.96 in 10.0 mi West 8.1 mph - N/A   Scattered Clouds
2:15 PM 77.4 °F 56.1 °F 48% 29.94 in 10.0 mi WNW 6.9 mph - N/A   Scattered Clouds
2:35 PM 77.5 °F 55.2 °F 46% 29.94 in 10.0 mi WNW 9.2 mph 16.1 mph N/A   Scattered Clouds
2:55 PM 75.7 °F 54.7 °F 48% 29.94 in 10.0 mi WNW 11.5 mph - N/A   Scattered Clouds
3:15 PM 76.1 °F 54.9 °F 48% 29.94 in 10.0 mi WNW 10.4 mph 16.1 mph N/A   Mostly Cloudy
3:35 PM 75.9 °F 55.2 °F 49% 29.94 in 10.0 mi WNW 17.3 mph - N/A   Mostly Cloudy
3:55 PM 75.0 °F 55.4 °F 50% 29.94 in 10.0 mi WNW 10.4 mph - N/A   Mostly Cloudy
4:15 PM 74.7 °F 55.6 °F 51% 29.94 in 10.0 mi WNW 6.9 mph - N/A   Overcast
4:35 PM 74.5 °F 54.7 °F 50% 29.94 in 10.0 mi WNW 10.4 mph - N/A   Overcast
4:55 PM 75.2 °F 54.3 °F 48% 29.94 in 10.0 mi WNW 11.5 mph - N/A   Overcast
5:15 PM 74.8 °F 54.3 °F 49% 29.94 in 10.0 mi WNW 10.4 mph - N/A   Overcast
5:35 PM 74.7 °F 54.7 °F 50% 29.95 in 5.0 mi WNW 6.9 mph - N/A   Haze
5:55 PM 73.9 °F 54.9 °F 51% 29.96 in 7.0 mi WNW 5.8 mph - N/A   Mostly Cloudy
6:15 PM 74.3 °F 55.0 °F 51% 29.97 in 10.0 mi NW 8.1 mph - N/A   Overcast
6:35 PM 73.6 °F 55.4 °F 53% 29.97 in 10.0 mi NW 5.8 mph - N/A   Mostly Cloudy
6:55 PM 72.0 °F 55.6 °F 56% 29.98 in 10.0 mi West 6.9 mph - N/A   Scattered Clouds
7:15 PM 70.3 °F 55.9 °F 60% 29.98 in 10.0 mi NW 4.6 mph - N/A   Clear
7:35 PM 68.5 °F 54.9 °F 62% 29.99 in 10.0 mi Calm Calm - N/A   Clear
7:55 PM 65.3 °F 57.0 °F 75% 29.99 in 10.0 mi WNW 3.5 mph - N/A   Clear
8:15 PM 63.9 °F 57.4 °F 79% 29.99 in 10.0 mi West 3.5 mph - N/A   Clear
8:35 PM 63.3 °F 56.8 °F 79% 30.00 in 10.0 mi West 3.5 mph - N/A   Clear
8:55 PM 60.8 °F 56.8 °F 87% 30.01 in 10.0 mi Calm Calm - N/A   Clear
9:15 PM 60.6 °F 57.2 °F 88% 30.02 in 10.0 mi Calm Calm - N/A   Clear
9:35 PM 60.3 °F 56.8 °F 88% 30.03 in 10.0 mi Calm Calm - N/A   Clear
9:55 PM 59.2 °F 56.5 °F 91% 30.03 in 10.0 mi Calm Calm - N/A   Clear
10:15 PM 58.3 °F 56.8 °F 95% 30.04 in 10.0 mi Calm Calm - N/A   Scattered Clouds
10:35 PM 56.8 °F 54.9 °F 93% 30.04 in 10.0 mi Calm Calm - N/A   Mostly Cloudy
10:55 PM 57.4 °F 56.3 °F 96% 30.04 in 10.0 mi Calm Calm - N/A   Overcast
11:15 PM 57.2 °F 55.2 °F 93% 30.04 in 10.0 mi Calm Calm - N/A   Mostly Cloudy
11:35 PM 57.0 °F 55.9 °F 96% 30.05 in 10.0 mi Calm Calm - N/A   Scattered Clouds
11:55 PM 56.7 °F 55.8 °F 97% 30.05 in 10.0 mi Calm Calm - N/A   Clear